Flag for U.S.A. Weather past 2 weeks in McAllen, Texas, U.S.A.

Now
55 °F

Light rain. Mostly cloudy.


Feels Like: 52 °F
Forecast: 54 / 73 °F
Wind: 10 mph from North

Location: Miller International Airport

Current Time: Feb 27, 2015 at 7:38:34 PM

Latest Report: Feb 27, 2015 at 7:01 PM


Visibility: 7 mi

Pressure: 30.17 "Hg

Humidity: 87%

Dew point: 51 °F

Location of McAllenLocation

Historic Weather in McAllen — Graph

°F

McAllen temperature yesterday

Maximum temperature yesterday: 74 °F (at 1:53 PM)
Minimum temperature yesterday: 45 °F (at 5:53 AM)
Average temperature yesterday: 58 °F

Past Weeks' High & Low Weather Summary

 TemperatureHumidityPressure
High87 °F (Feb 21, 2:53 PM)97% (Feb 26, 5:53 AM)30.41 "Hg (Feb 26, 5:53 AM)
Low39 °F (Feb 24, 4:53 AM)23% (Feb 18, 2:53 PM)29.77 "Hg (Feb 21, 3:53 PM)
Average60 °F74%30.12 "Hg
* Reported Feb 12 5:53 PM — Feb 27 5:53 PM, McAllen, Weather by CustomWeather, © 2015

Note: Actual official high and low records may vary slightly from our data, if they occured in-between our weather recording intervals... More about our weather records

Advertising

McAllen weather history for previous 24 hours

 ConditionsComfort  
Time TempWeatherWind HumidityBarometerVisibility
5:53 PM
Fri, Feb 27
59 °FMostly cloudy.10 mph75%30.15 "Hg9 mi
4:53 PM62 °FMostly cloudy.10 mph65%30.14 "Hg10 mi
3:53 PM61 °FMostly cloudy.10 mph62%30.14 "Hg10 mi
2:53 PM62 °FOvercast.8 mph60%30.15 "Hg10 mi
1:53 PM61 °FMostly cloudy.9 mph58%30.18 "Hg10 mi
12:53 PM59 °FMore clouds than sun.8 mph60%30.21 "Hg10 mi
11:53 AM56 °FPartly sunny.7 mph62%30.24 "Hg10 mi
10:53 AM54 °FMostly cloudy.10 mph67%30.26 "Hg9 mi
10:00 AM53 °FPartly sunny.13 mph69%30.27 "Hg8 mi
9:00 AM48 °FOvercast.14 mph77%30.26 "Hg6 mi
7:53 AM46 °FLow clouds.16 mph77%30.24 "Hg7 mi
6:53 AM46 °FOvercast.13 mph79%30.23 "Hg9 mi
5:53 AM47 °FPassing clouds.14 mph77%30.21 "Hg9 mi
4:53 AM48 °FPassing clouds.14 mph77%30.21 "Hg9 mi
3:53 AM51 °FOvercast.13 mph74%30.21 "Hg10 mi
2:53 AM54 °FOvercast.7 mph74%30.22 "Hg10 mi
1:53 AM54 °FOvercast.8 mph74%30.24 "Hg10 mi
12:53 AM54 °FOvercast.6 mph74%30.24 "Hg10 mi
11:53 PM
Thu, Feb 26
52 °FPassing clouds.6 mph77%30.22 "Hg10 mi
10:53 PM53 °FClear.7 mph74%30.21 "Hg10 mi
9:53 PM54 °FClear.8 mph72%30.19 "Hg10 mi
8:53 PM56 °FClear.14 mph65%30.17 "Hg10 mi
7:53 PM57 °FClear.13 mph60%30.14 "Hg10 mi
Weather by CustomWeather, © 2015

See weather overviewHow to use our weather pages